| time (UTC) | temp C | wind direction | speed KPH | gust KPH | rain 1hr cm | rain 24hr cm | rain mn cm | humidity % | barometer mb |
| 20260905182900 | 28 | 140 | 1.6 | 1.6 | 0.00 | 0.00 | 0.23 | 79 | 1005.0 |
| 20260905182014 | 28 | 201 | 1.6 | 3.2 | 0.00 | 0.00 | 0.23 | 77 | 1005.0 |
| 20260905181554 | 28 | 201 | 1.6 | 1.6 | 0.00 | 0.00 | 0.23 | 77 | 1005.0 |
| 20260905181123 | 28 | 170 | 0.0 | 1.6 | 0.00 | 0.00 | 0.23 | 81 | 1005.0 |
| 20260905180706 | 28 | 131 | 0.0 | 0.0 | 0.00 | 0.00 | 0.23 | 79 | 1005.0 |
| 20260905175804 | 28 | 127 | 1.6 | 1.6 | 0.00 | 0.00 | 0.23 | 74 | 1005.0 |
| 20260905175349 | 28 | 185 | 1.6 | 1.6 | 0.00 | 0.00 | 0.23 | 76 | 1005.0 |
| 20260905174934 | 27 | 193 | 0.0 | 1.6 | 0.00 | 0.00 | 0.23 | 79 | 1005.4 |
| 20260905174050 | 27 | 127 | 1.6 | 1.6 | 0.00 | 0.00 | 0.23 | 80 | 1005.0 |
| 20260905173634 | 28 | 168 | 0.0 | 0.0 | 0.00 | 0.00 | 0.23 | 81 | 1005.4 |
| 20260905173204 | 27 | 154 | 0.0 | 1.6 | 0.00 | 0.00 | 0.23 | 81 | 1005.4 |
| 20260905172747 | 27 | 191 | 1.6 | 1.6 | 0.00 | 0.00 | 0.23 | 82 | 1005.7 |
| 20260905171900 | 26 | 144 | 1.6 | 1.6 | 0.00 | 0.00 | 0.23 | 85 | 1005.4 |
| 20260905171444 | 26 | 271 | 1.6 | 3.2 | 0.00 | 0.00 | 0.23 | 85 | 1005.7 |
| 20260905170542 | 26 | 253 | 3.2 | 3.2 | 0.00 | 0.00 | 0.23 | 86 | 1006.0 |
| 20260905170127 | 26 | 137 | 1.6 | 1.6 | 0.00 | 0.00 | 0.23 | 87 | 1005.7 |
| 20260905165711 | 26 | 115 | 0.0 | 0.0 | 0.00 | 0.00 | 0.23 | 87 | 1006.0 |
| 20260905165253 | 26 | 117 | 0.0 | 0.0 | 0.00 | 0.00 | 0.23 | 88 | 1006.0 |
| 20260905164836 | 26 | 196 | 3.2 | 3.2 | 0.00 | 0.00 | 0.23 | 87 | 1006.0 |
| 20260905164422 | 26 | 179 | 0.0 | 1.6 | 0.00 | 0.00 | 0.23 | 87 | 1006.0 |
| 20260905163949 | 26 | 146 | 0.0 | 0.0 | 0.00 | 0.00 | 0.23 | 85 | 1006.0 |
| 20260905163518 | 26 | 156 | 0.0 | 0.0 | 0.00 | 0.00 | 0.23 | 87 | 1006.0 |
| 20260905163048 | 26 | 145 | 0.0 | 0.0 | 0.00 | 0.00 | 0.23 | 88 | 1006.0 |
| 20260905162632 | 26 | 146 | 0.0 | 1.6 | 0.00 | 0.00 | 0.23 | 88 | 1005.7 |
| 20260905162200 | 26 | 144 | 0.0 | 0.0 | 0.00 | 0.00 | 0.23 | 90 | 1006.0 |
| 20260905161743 | 26 | 131 | 0.0 | 0.0 | 0.00 | 0.00 | 0.23 | 89 | 1006.0 |
| 20260905161327 | 25 | 168 | 0.0 | 1.6 | 0.00 | 0.00 | 0.23 | 90 | 1006.0 |
| 20260905160856 | 25 | 142 | 0.0 | 0.0 | 0.00 | 0.00 | 0.23 | 90 | 1006.0 |
| 20260905160442 | 25 | 153 | 0.0 | 0.0 | 0.00 | 0.00 | 0.23 | 91 | 1006.4 |
| 20260905160011 | 24 | 138 | 0.0 | 0.0 | 0.00 | 0.00 | 0.23 | 94 | 1006.4 |
| 20260905155541 | 24 | 354 | 3.2 | 3.2 | 0.00 | 0.00 | 0.23 | 93 | 1006.4 |
| 20260905154209 | 24 | 196 | 1.6 | 1.6 | 0.00 | 0.00 | 0.23 | 93 | 1006.0 |
| 20260905153736 | 24 | 230 | 1.6 | 3.2 | 0.00 | 0.00 | 0.23 | 93 | 1006.4 |
| 20260905153318 | 24 | 141 | 0.0 | 0.0 | 0.00 | 0.00 | 0.23 | 96 | 1006.0 |
| 20260905152901 | 24 | 134 | 0.0 | 1.6 | 0.00 | 0.00 | 0.23 | 95 | 1006.0 |
| 20260905152444 | 23 | 110 | 0.0 | 1.6 | 0.00 | 0.00 | 0.23 | 96 | 1005.4 |
| 20260905152027 | 23 | 139 | 0.0 | 0.0 | 0.00 | 0.00 | 0.23 | 98 | 1005.4 |
| 20260905151555 | 23 | 86 | 0.0 | 0.0 | 0.00 | 0.00 | 0.23 | 99 | 1005.4 |
| 20260905151140 | 23 | 115 | 0.0 | 0.0 | 0.00 | 0.00 | 0.23 | 98 | 1005.0 |
| 20260905150722 | 23 | 101 | 1.6 | 1.6 | 0.00 | 0.00 | 0.23 | 98 | 1005.4 |
| 20260905150305 | 23 | 323 | 3.2 | 3.2 | 0.00 | 0.00 | 0.23 | 97 | 1005.7 |
| 20260905145849 | 23 | 278 | 4.8 | 6.4 | 0.00 | 0.00 | 0.23 | 98 | 1006.0 |
| 20260905145432 | 23 | 305 | 3.2 | 3.2 | 0.00 | 0.00 | 0.23 | 99 | 1006.0 |
| 20260905145017 | 22 | 25 | 1.6 | 3.2 | 0.00 | 0.00 | 0.23 | 99 | 1005.7 |
| 20260905144559 | 22 | 88 | 1.6 | 1.6 | 0.00 | 0.00 | 0.23 | 99 | 1005.4 |
| 20260905144144 | 22 | 148 | 0.0 | 0.0 | 0.00 | 0.00 | 0.23 | 99 | 1005.7 |
| 20260905143726 | 22 | 132 | 0.0 | 0.0 | 0.00 | 0.00 | 0.23 | 99 | 1005.7 |
| 20260905143256 | 22 | 67 | 1.6 | 3.2 | 0.00 | 0.00 | 0.23 | 99 | 1005.7 |
| 20260905142823 | 22 | 129 | 0.0 | 1.6 | 0.00 | 0.00 | 0.23 | 99 | 1005.0 |
| 20260905142407 | 22 | 129 | 0.0 | 0.0 | 0.00 | 0.00 | 0.23 | 99 | 1005.0 |
| 20260905141948 | 22 | 99 | 1.6 | 1.6 | 0.00 | 0.00 | 0.23 | 99 | 1005.7 |
| 20260905141533 | 22 | 105 | 1.6 | 1.6 | 0.00 | 0.00 | 0.23 | 99 | 1005.7 |
| 20260905140631 | 23 | 132 | 0.0 | 0.0 | 0.00 | 0.00 | 0.23 | 99 | 1005.4 |
| 20260905140215 | 22 | 132 | 0.0 | 0.0 | 0.00 | 0.00 | 0.23 | 99 | 1005.7 |
| 20260905135756 | 22 | 131 | 0.0 | 0.0 | 0.00 | 0.00 | 0.23 | 99 | 1006.0 |
| 20260905135338 | 22 | 124 | 0.0 | 0.0 | 0.00 | 0.00 | 0.23 | 99 | 1006.4 |
| 20260905134451 | 22 | 144 | 0.0 | 0.0 | 0.00 | 0.00 | 0.23 | 99 | 1006.4 |
| 20260905134033 | 22 | 124 | 0.0 | 0.0 | 0.00 | 0.00 | 0.23 | 99 | 1006.4 |
| 20260905133600 | 22 | 112 | 0.0 | 0.0 | 0.00 | 0.00 | 0.23 | 99 | 1006.4 |
| 20260905133129 | 22 | 90 | 0.0 | 1.6 | 0.00 | 0.00 | 0.23 | 99 | 1006.4 |
| 20260905132711 | 22 | 134 | 0.0 | 0.0 | 0.00 | 0.00 | 0.23 | 99 | 1006.7 |
| 20260905131339 | 22 | 141 | 0.0 | 0.0 | 0.00 | 0.00 | 0.23 | 99 | 1007.1 |
| 20260905130922 | 22 | 134 | 0.0 | 0.0 | 0.00 | 0.00 | 0.23 | 99 | 1007.1 |
| 20260905130504 | 22 | 136 | 0.0 | 0.0 | 0.00 | 0.00 | 0.23 | 99 | 1007.1 |
| 20260905130032 | 22 | 143 | 0.0 | 0.0 | 0.00 | 0.00 | 0.23 | 99 | 1007.1 |
| 20260905125613 | 22 | 143 | 0.0 | 0.0 | 0.00 | 0.00 | 0.23 | 99 | 1007.1 |
| 20260905124254 | 21 | 126 | 0.0 | 0.0 | 0.00 | 0.00 | 0.23 | 99 | 1006.7 |
| 20260905123408 | 22 | 128 | 0.0 | 0.0 | 0.00 | 0.00 | 0.23 | 99 | 1006.7 |
| 20260905122951 | 22 | 88 | 0.0 | 1.6 | 0.00 | 0.00 | 0.23 | 99 | 1006.7 |
| 20260905122045 | 22 | 148 | 0.0 | 0.0 | 0.00 | 0.00 | 0.23 | 99 | 1006.7 |
| 20260905121631 | 22 | 134 | 0.0 | 0.0 | 0.00 | 0.00 | 0.23 | 99 | 1007.1 |
| 20260905121200 | 22 | 126 | 0.0 | 0.0 | 0.00 | 0.00 | 0.23 | 99 | 1006.7 |
| 20260905120258 | 22 | 71 | 1.6 | 1.6 | 0.00 | 0.00 | 0.23 | 99 | 1007.1 |
| 20260905114922 | 22 | 172 | 3.2 | 3.2 | 0.00 | 0.00 | 0.23 | 99 | 1007.1 |
| 20260905114452 | 22 | 185 | 4.8 | 4.8 | 0.00 | 0.00 | 0.00 | 99 | 1006.0 |
| 20260905114038 | 22 | 167 | 1.6 | 1.6 | 0.00 | 0.00 | 0.00 | 99 | 1005.7 |
| 20260905113622 | 22 | 144 | 0.0 | 0.0 | 0.00 | 0.00 | 0.00 | 99 | 1005.0 |
| 20260905113136 | 22 | 147 | 0.0 | 0.0 | 0.00 | 0.00 | 0.00 | 99 | 1005.0 |
| 20260905112706 | 22 | 119 | 0.0 | 0.0 | 0.00 | 0.00 | 0.00 | 99 | 1005.0 |
| 20260905112251 | 22 | 140 | 0.0 | 0.0 | 0.00 | 0.00 | 0.00 | 99 | 1005.0 |
| 20260905111821 | 22 | 136 | 0.0 | 0.0 | 0.00 | 0.00 | 0.00 | 99 | 1005.4 |
| 20260905111406 | 22 | 139 | 0.0 | 0.0 | 0.00 | 0.00 | 0.00 | 99 | 1005.7 |
| 20260905110949 | 22 | 168 | 1.6 | 1.6 | 0.00 | 0.00 | 0.00 | 99 | 1005.4 |
| 20260905110519 | 22 | 163 | 1.6 | 1.6 | 0.00 | 0.00 | 0.00 | 99 | 1005.4 |
| 20260905110105 | 22 | 198 | 4.8 | 4.8 | 0.00 | 0.00 | 0.00 | 99 | 1005.0 |
| 20260905105634 | 22 | 147 | 0.0 | 0.0 | 0.00 | 0.00 | 0.00 | 99 | 1005.4 |
| 20260905105147 | 22 | 255 | 12.9 | 17.7 | 0.00 | 0.00 | 0.00 | 99 | 1005.4 |
| 20260905104731 | 22 | 150 | 0.0 | 0.0 | 0.00 | 0.00 | 0.00 | 99 | 1004.4 |
| 20260905104315 | 22 | 139 | 0.0 | 0.0 | 0.00 | 0.00 | 0.00 | 99 | 1004.0 |
| 20260905103859 | 22 | 137 | 0.0 | 0.0 | 0.00 | 0.00 | 0.00 | 99 | 1004.0 |
| 20260905103427 | 22 | 135 | 0.0 | 0.0 | 0.00 | 0.00 | 0.00 | 99 | 1004.0 |
| 20260905103012 | 22 | 140 | 0.0 | 0.0 | 0.00 | 0.00 | 0.00 | 99 | 1004.0 |
| 20260905102542 | 22 | 140 | 0.0 | 0.0 | 0.00 | 0.00 | 0.00 | 99 | 1004.4 |
| 20260905102127 | 22 | 139 | 0.0 | 0.0 | 0.00 | 0.00 | 0.00 | 99 | 1004.0 |
| 20260905101657 | 22 | 140 | 0.0 | 0.0 | 0.00 | 0.00 | 0.00 | 99 | 1004.0 |
| 20260905100256 | 22 | 132 | 0.0 | 0.0 | 0.00 | 0.00 | 0.00 | 99 | 1004.4 |
| 20260905095838 | 22 | 120 | 0.0 | 0.0 | 0.00 | 0.00 | 0.00 | 99 | 1004.4 |
| 20260905095420 | 22 | 146 | 0.0 | 0.0 | 0.00 | 0.00 | 0.00 | 99 | 1004.7 |
| 20260905094101 | 22 | 143 | 0.0 | 0.0 | 0.00 | 0.00 | 0.00 | 99 | 1004.0 |
| 20260905093644 | 22 | 143 | 0.0 | 0.0 | 0.00 | 0.00 | 0.00 | 99 | 1004.0 |
| 20260905093229 | 22 | 144 | 0.0 | 0.0 | 0.00 | 0.00 | 0.00 | 99 | 1004.4 |
| 20260905092812 | 22 | 140 | 0.0 | 0.0 | 0.00 | 0.00 | 0.00 | 99 | 1004.0 |
| 20260905091455 | 22 | 138 | 0.0 | 0.0 | 0.00 | 0.00 | 0.00 | 99 | 1004.4 |
| 20260905091040 | 22 | 138 | 0.0 | 0.0 | 0.00 | 0.00 | 0.00 | 99 | 1004.4 |
| 20260905090626 | 22 | 138 | 0.0 | 0.0 | 0.00 | 0.00 | 0.00 | 99 | 1004.4 |
| 20260905090157 | 22 | 134 | 0.0 | 0.0 | 0.00 | 0.00 | 0.00 | 99 | 1004.0 |
| 20260905085744 | 22 | 135 | 0.0 | 0.0 | 0.00 | 0.00 | 0.00 | 99 | 1004.4 |
| 20260905085329 | 22 | 139 | 0.0 | 0.0 | 0.00 | 0.00 | 0.00 | 99 | 1004.4 |
| 20260905084859 | 22 | 137 | 0.0 | 0.0 | 0.00 | 0.00 | 0.00 | 99 | 1004.0 |
| 20260905084445 | 22 | 140 | 0.0 | 0.0 | 0.00 | 0.00 | 0.00 | 99 | 1004.4 |
| 20260905084028 | 22 | 144 | 0.0 | 0.0 | 0.00 | 0.00 | 0.00 | 99 | 1004.4 |
| 20260905083559 | 22 | 143 | 0.0 | 0.0 | 0.00 | 0.00 | 0.00 | 99 | 1004.4 |
| 20260905083144 | 22 | 140 | 0.0 | 0.0 | 0.00 | 0.00 | 0.00 | 99 | 1004.4 |
| 20260905082727 | 22 | 138 | 0.0 | 0.0 | 0.00 | 0.00 | 0.00 | 99 | 1004.0 |
| 20260905082311 | 22 | 138 | 0.0 | 0.0 | 0.00 | 0.00 | 0.00 | 99 | 1004.4 |
| 20260905081854 | 22 | 138 | 0.0 | 0.0 | 0.00 | 0.00 | 0.00 | 99 | 1004.4 |
| 20260905081438 | 22 | 138 | 0.0 | 0.0 | 0.00 | 0.00 | 0.00 | 99 | 1004.4 |
| 20260905081020 | 22 | 131 | 0.0 | 0.0 | 0.00 | 0.00 | 0.00 | 99 | 1004.0 |
| 20260905080131 | 22 | 131 | 0.0 | 0.0 | 0.00 | 0.00 | 0.00 | 99 | 1004.0 |
| 20260905075714 | 22 | 133 | 0.0 | 0.0 | 0.00 | 0.00 | 0.00 | 99 | 1004.0 |
| 20260905074825 | 22 | 133 | 0.0 | 0.0 | 0.00 | 0.00 | 0.00 | 99 | 1004.4 |
| 20260905073934 | 22 | 133 | 0.0 | 0.0 | 0.00 | 0.00 | 0.00 | 99 | 1004.0 |
| 20260905073032 | 22 | 132 | 0.0 | 0.0 | 0.00 | 0.00 | 0.00 | 99 | 1004.4 |
| 20260905072618 | 22 | 133 | 0.0 | 0.0 | 0.00 | 0.00 | 0.00 | 99 | 1004.4 |
| 20260905071301 | 22 | 135 | 0.0 | 0.0 | 0.00 | 0.00 | 0.00 | 99 | 1004.7 |
| 20260905070830 | 22 | 101 | 0.0 | 0.0 | 0.00 | 0.00 | 0.00 | 99 | 1004.7 |
| 20260905070414 | 22 | 144 | 0.0 | 0.0 | 0.00 | 0.00 | 0.00 | 99 | 1004.7 |
| 20260905070000 | 22 | 144 | 0.0 | 0.0 | 0.00 | 0.00 | 0.00 | 99 | 1004.7 |
| 20260905065544 | 22 | 144 | 0.0 | 0.0 | 0.00 | 0.00 | 0.00 | 99 | 1005.0 |
| 20260905065129 | 22 | 144 | 0.0 | 0.0 | 0.00 | 0.00 | 0.00 | 99 | 1005.0 |
| 20260905064713 | 22 | 144 | 0.0 | 0.0 | 0.00 | 0.00 | 0.00 | 99 | 1005.0 |
| 20260905064257 | 22 | 144 | 0.0 | 0.0 | 0.00 | 0.00 | 0.00 | 99 | 1005.4 |
| 20260905063841 | 22 | 144 | 0.0 | 0.0 | 0.00 | 0.00 | 0.00 | 99 | 1005.4 |
| 20260905063426 | 22 | 144 | 0.0 | 0.0 | 0.00 | 0.00 | 0.00 | 99 | 1005.4 |
| 20260905062509 | 22 | 141 | 0.0 | 0.0 | 0.00 | 0.00 | 0.00 | 99 | 1005.4 |
| 20260905062037 | 22 | 139 | 0.0 | 0.0 | 0.00 | 0.00 | 0.00 | 99 | 1005.4 |
| 20260905061621 | 22 | 138 | 0.0 | 0.0 | 0.00 | 0.00 | 0.00 | 99 | 1005.7 |
| 20260905061204 | 22 | 138 | 0.0 | 0.0 | 0.00 | 0.00 | 0.00 | 99 | 1005.7 |
| 20260905060746 | 22 | 142 | 0.0 | 0.0 | 0.00 | 0.00 | 0.00 | 99 | 1006.0 |
| 20260905060329 | 22 | 142 | 0.0 | 0.0 | 0.00 | 0.00 | 0.00 | 99 | 1005.7 |
| 20260905055912 | 22 | 142 | 0.0 | 0.0 | 0.00 | 0.00 | 0.00 | 99 | 1006.0 |
| 20260905055456 | 22 | 142 | 0.0 | 0.0 | 0.00 | 0.00 | 0.00 | 99 | 1006.0 |
| 20260905055041 | 22 | 142 | 0.0 | 0.0 | 0.00 | 0.00 | 0.00 | 99 | 1006.0 |
| 20260905054625 | 22 | 142 | 0.0 | 0.0 | 0.00 | 0.00 | 0.00 | 99 | 1006.0 |
| 20260905054210 | 22 | 141 | 0.0 | 0.0 | 0.00 | 0.00 | 0.00 | 99 | 1006.0 |
| 20260905053753 | 22 | 140 | 0.0 | 0.0 | 0.00 | 0.00 | 0.00 | 99 | 1006.0 |
| 20260905053323 | 22 | 140 | 0.0 | 0.0 | 0.00 | 0.00 | 0.00 | 99 | 1006.4 |
| 20260905052851 | 22 | 140 | 0.0 | 0.0 | 0.00 | 0.00 | 0.00 | 99 | 1006.4 |
| 20260905052436 | 22 | 138 | 0.0 | 0.0 | 0.00 | 0.00 | 0.00 | 99 | 1006.4 |
| 20260905052020 | 22 | 135 | 0.0 | 0.0 | 0.00 | 0.00 | 0.00 | 99 | 1006.4 |
| 20260905051549 | 23 | 134 | 0.0 | 0.0 | 0.00 | 0.00 | 0.00 | 99 | 1006.4 |
| 20260905051120 | 23 | 132 | 0.0 | 0.0 | 0.00 | 0.00 | 0.00 | 99 | 1006.0 |
| 20260905050219 | 23 | 130 | 0.0 | 0.0 | 0.00 | 0.00 | 0.00 | 99 | 1006.4 |
| 20260905045802 | 23 | 130 | 0.0 | 0.0 | 0.00 | 0.00 | 0.00 | 99 | 1006.0 |
| 20260905045346 | 23 | 130 | 0.0 | 0.0 | 0.00 | 0.00 | 0.00 | 99 | 1006.0 |
| 20260905044915 | 23 | 131 | 0.0 | 0.0 | 0.00 | 0.00 | 0.00 | 99 | 1006.0 |
| 20260905044444 | 23 | 131 | 0.0 | 0.0 | 0.00 | 0.00 | 0.00 | 99 | 1006.0 |
| 20260905044028 | 23 | 126 | 0.0 | 0.0 | 0.00 | 0.00 | 0.00 | 99 | 1006.4 |
| 20260905043614 | 23 | 131 | 0.0 | 0.0 | 0.00 | 0.00 | 0.00 | 99 | 1006.4 |
| 20260905043158 | 23 | 131 | 0.0 | 0.0 | 0.00 | 0.00 | 0.00 | 99 | 1006.0 |
| 20260905042743 | 23 | 131 | 0.0 | 0.0 | 0.00 | 0.00 | 0.00 | 99 | 1006.0 |
| 20260905042257 | 23 | 131 | 0.0 | 0.0 | 0.00 | 0.00 | 0.00 | 99 | 1006.0 |
| 20260905041840 | 23 | 131 | 0.0 | 0.0 | 0.00 | 0.00 | 0.00 | 99 | 1006.0 |
| 20260905041409 | 23 | 131 | 0.0 | 0.0 | 0.00 | 0.00 | 0.00 | 99 | 1006.0 |
| 20260905040950 | 23 | 139 | 0.0 | 0.0 | 0.00 | 0.00 | 0.00 | 99 | 1006.0 |
| 20260905040534 | 23 | 136 | 0.0 | 0.0 | 0.00 | 0.00 | 0.00 | 99 | 1006.0 |
| 20260905040103 | 23 | 133 | 0.0 | 0.0 | 0.00 | 0.00 | 0.00 | 99 | 1006.0 |
| 20260905035632 | 23 | 137 | 0.0 | 0.0 | 0.00 | 0.00 | 0.00 | 99 | 1006.4 |
| 20260905035216 | 23 | 137 | 0.0 | 0.0 | 0.00 | 0.00 | 0.00 | 99 | 1006.0 |
| 20260905034800 | 23 | 138 | 0.0 | 0.0 | 0.00 | 0.00 | 0.00 | 99 | 1006.0 |
| 20260905034344 | 23 | 136 | 0.0 | 0.0 | 0.00 | 0.00 | 0.00 | 99 | 1006.0 |
| 20260905033927 | 23 | 140 | 0.0 | 0.0 | 0.00 | 0.00 | 0.00 | 99 | 1006.0 |
| 20260905033510 | 23 | 133 | 0.0 | 0.0 | 0.00 | 0.00 | 0.00 | 99 | 1006.4 |
| 20260905033051 | 23 | 138 | 0.0 | 0.0 | 0.00 | 0.00 | 0.00 | 99 | 1006.4 |
| 20260905032635 | 23 | 138 | 0.0 | 0.0 | 0.00 | 0.00 | 0.00 | 99 | 1006.4 |
| 20260905032204 | 23 | 138 | 0.0 | 0.0 | 0.00 | 0.00 | 0.00 | 99 | 1006.0 |
| 20260905031730 | 23 | 140 | 0.0 | 0.0 | 0.00 | 0.00 | 0.00 | 99 | 1006.0 |
| 20260905031312 | 23 | 134 | 0.0 | 0.0 | 0.00 | 0.00 | 0.00 | 99 | 1006.0 |
| 20260905030842 | 23 | 135 | 0.0 | 0.0 | 0.00 | 0.00 | 0.00 | 99 | 1006.0 |
| 20260905025938 | 23 | 139 | 0.0 | 0.0 | 0.00 | 0.00 | 0.00 | 99 | 1006.0 |
| 20260905025522 | 23 | 139 | 0.0 | 0.0 | 0.00 | 0.00 | 0.00 | 99 | 1006.0 |
| 20260905025106 | 23 | 138 | 0.0 | 0.0 | 0.00 | 0.00 | 0.00 | 99 | 1006.0 |
| 20260905024650 | 23 | 135 | 0.0 | 0.0 | 0.00 | 0.00 | 0.00 | 99 | 1006.0 |
| 20260905023747 | 23 | 141 | 0.0 | 0.0 | 0.00 | 0.00 | 0.00 | 99 | 1006.0 |
| 20260905022411 | 24 | 141 | 0.0 | 0.0 | 0.00 | 0.00 | 0.00 | 99 | 1006.0 |
| 20260905021938 | 24 | 140 | 0.0 | 0.0 | 0.00 | 0.00 | 0.00 | 98 | 1006.0 |
| 20260905021521 | 24 | 140 | 0.0 | 0.0 | 0.00 | 0.00 | 0.00 | 99 | 1006.0 |
| 20260905021104 | 24 | 142 | 0.0 | 0.0 | 0.00 | 0.00 | 0.00 | 98 | 1006.4 |
| 20260905020649 | 24 | 144 | 0.0 | 0.0 | 0.00 | 0.00 | 0.00 | 98 | 1006.0 |
| 20260905020234 | 24 | 140 | 0.0 | 0.0 | 0.00 | 0.00 | 0.00 | 98 | 1006.0 |
| 20260905015818 | 24 | 133 | 0.0 | 0.0 | 0.00 | 0.00 | 0.00 | 98 | 1006.0 |
| 20260905014931 | 24 | 143 | 0.0 | 0.0 | 0.00 | 0.00 | 0.00 | 98 | 1006.0 |
| 20260905014459 | 24 | 137 | 0.0 | 0.0 | 0.00 | 0.00 | 0.00 | 98 | 1006.0 |
| 20260905014044 | 25 | 138 | 0.0 | 0.0 | 0.00 | 0.00 | 0.00 | 97 | 1006.0 |
| 20260905013629 | 25 | 143 | 0.0 | 0.0 | 0.00 | 0.00 | 0.00 | 97 | 1006.0 |
| 20260905013212 | 25 | 143 | 0.0 | 0.0 | 0.00 | 0.00 | 0.00 | 97 | 1006.0 |
| 20260905012741 | 25 | 143 | 0.0 | 0.0 | 0.00 | 0.00 | 0.00 | 97 | 1006.0 |
| 20260905012323 | 25 | 143 | 0.0 | 0.0 | 0.00 | 0.00 | 0.00 | 97 | 1006.0 |
| 20260905011907 | 25 | 142 | 0.0 | 0.0 | 0.00 | 0.00 | 0.00 | 96 | 1006.0 |
| 20260905011449 | 25 | 140 | 0.0 | 0.0 | 0.00 | 0.00 | 0.00 | 96 | 1006.0 |
| 20260905010544 | 25 | 140 | 0.0 | 0.0 | 0.00 | 0.00 | 0.00 | 95 | 1006.0 |
| 20260905010128 | 25 | 141 | 0.0 | 0.0 | 0.00 | 0.00 | 0.00 | 96 | 1005.7 |
| 20260905005711 | 25 | 136 | 0.0 | 0.0 | 0.00 | 0.00 | 0.00 | 96 | 1005.7 |
| 20260905005255 | 25 | 135 | 0.0 | 0.0 | 0.00 | 0.00 | 0.00 | 95 | 1005.7 |
| 20260905004824 | 25 | 135 | 0.0 | 0.0 | 0.00 | 0.00 | 0.00 | 95 | 1005.7 |
| 20260905004407 | 25 | 135 | 0.0 | 0.0 | 0.00 | 0.00 | 0.00 | 95 | 1005.4 |
| 20260905003950 | 25 | 135 | 0.0 | 0.0 | 0.00 | 0.00 | 0.00 | 95 | 1005.4 |
| 20260905003104 | 26 | 130 | 0.0 | 0.0 | 0.00 | 0.00 | 0.00 | 95 | 1005.4 |
| 20260905002648 | 26 | 126 | 0.0 | 0.0 | 0.00 | 0.00 | 0.00 | 94 | 1005.0 |
| 20260905002231 | 26 | 110 | 0.0 | 0.0 | 0.00 | 0.00 | 0.00 | 93 | 1005.0 |
| 20260905001817 | 26 | 140 | 0.0 | 0.0 | 0.00 | 0.00 | 0.00 | 93 | 1005.0 |
| 20260905001400 | 26 | 136 | 0.0 | 0.0 | 0.00 | 0.00 | 0.00 | 92 | 1005.0 |
| 20260905000943 | 26 | 135 | 0.0 | 0.0 | 0.00 | 0.00 | 0.00 | 92 | 1005.0 |
| 20260905000525 | 27 | 90 | 0.0 | 0.0 | 0.00 | 0.00 | 0.00 | 91 | 1004.7 |
| 20260905000105 | 27 | 131 | 0.0 | 0.0 | 0.00 | 0.00 | 0.00 | 90 | 1005.0 |
| 20260904235217 | 27 | 146 | 0.0 | 0.0 | 0.00 | 0.00 | 0.00 | 88 | 1004.7 |
| 20260904234801 | 28 | 147 | 0.0 | 0.0 | 0.00 | 0.00 | 0.00 | 87 | 1004.7 |
| 20260904234331 | 28 | 142 | 0.0 | 0.0 | 0.00 | 0.00 | 0.00 | 87 | 1004.7 |
| 20260904233914 | 28 | 143 | 0.0 | 0.0 | 0.00 | 0.00 | 0.00 | 87 | 1004.7 |
| 20260904233443 | 28 | 119 | 0.0 | 0.0 | 0.00 | 0.00 | 0.00 | 85 | 1004.7 |
| 20260904233012 | 28 | 84 | 1.6 | 1.6 | 0.00 | 0.00 | 0.00 | 86 | 1004.4 |
| 20260904232111 | 29 | 149 | 0.0 | 0.0 | 0.00 | 0.00 | 0.00 | 83 | 1004.7 |
| 20260904231654 | 30 | 147 | 0.0 | 0.0 | 0.00 | 0.00 | 0.00 | 81 | 1004.4 |
| 20260904231223 | 30 | 142 | 0.0 | 0.0 | 0.00 | 0.00 | 0.00 | 79 | 1004.7 |
| 20260904230752 | 31 | 127 | 0.0 | 0.0 | 0.00 | 0.00 | 0.00 | 77 | 1004.4 |
| 20260904225849 | 32 | 148 | 0.0 | 0.0 | 0.00 | 0.00 | 0.00 | 73 | 1004.7 |
| 20260904225432 | 32 | 146 | 0.0 | 0.0 | 0.00 | 0.00 | 0.00 | 74 | 1005.0 |
| 20260904225016 | 32 | 150 | 0.0 | 0.0 | 0.00 | 0.00 | 0.00 | 73 | 1005.4 |
| 20260904224529 | 32 | 136 | 0.0 | 0.0 | 0.00 | 0.00 | 0.00 | 73 | 1005.7 |
| 20260904223153 | 31 | 174 | 0.0 | 1.6 | 0.00 | 0.00 | 0.00 | 77 | 1005.7 |
| 20260904222736 | 31 | 332 | 3.2 | 3.2 | 0.00 | 0.00 | 0.00 | 74 | 1006.0 |
| 20260904222319 | 31 | 77 | 1.6 | 1.6 | 0.00 | 0.00 | 0.00 | 74 | 1006.0 |
| 20260904221902 | 31 | 321 | 3.2 | 3.2 | 0.00 | 0.00 | 0.00 | 74 | 1006.0 |
| 20260904220943 | 32 | 141 | 1.6 | 3.2 | 0.00 | 0.00 | 0.00 | 72 | 1005.7 |
| 20260904220523 | 31 | 171 | 1.6 | 1.6 | 0.00 | 0.00 | 0.00 | 73 | 1006.0 |
| 20260904215646 | 31 | 29 | 3.2 | 3.2 | 0.00 | 0.00 | 0.00 | 72 | 1006.4 |
| 20260904215229 | 31 | 170 | 0.0 | 1.6 | 0.00 | 0.00 | 0.00 | 73 | 1006.4 |
| 20260904214755 | 30 | 227 | 0.0 | 0.0 | 0.00 | 0.00 | 0.00 | 80 | 1006.7 |
| 20260904214339 | 28 | 155 | 0.0 | 1.6 | 0.00 | 0.00 | 0.00 | 83 | 1006.7 |
| 20260904213902 | 28 | 141 | 0.0 | 0.0 | 0.00 | 0.00 | 0.00 | 87 | 1007.1 |
| 20260904213446 | 27 | 143 | 0.0 | 0.0 | 0.00 | 0.00 | 0.00 | 88 | 1006.7 |
| 20260904213013 | 27 | 139 | 0.0 | 0.0 | 0.00 | 0.00 | 0.00 | 87 | 1006.7 |
| 20260904212556 | 27 | 141 | 0.0 | 0.0 | 0.00 | 0.00 | 0.00 | 87 | 1006.7 |
| 20260904212140 | 27 | 139 | 1.6 | 1.6 | 0.00 | 0.00 | 0.00 | 87 | 1006.7 |
| 20260904211708 | 27 | 47 | 1.6 | 1.6 | 0.00 | 0.00 | 0.00 | 87 | 1006.7 |
| 20260904211236 | 27 | 100 | 1.6 | 1.6 | 0.00 | 0.00 | 0.00 | 86 | 1006.7 |
| 20260904210331 | 28 | 148 | 0.0 | 0.0 | 0.00 | 0.00 | 0.00 | 86 | 1006.4 |
| 20260904205914 | 28 | 115 | 0.0 | 0.0 | 0.00 | 0.00 | 0.00 | 85 | 1006.4 |
| 20260904204554 | 29 | 141 | 0.0 | 0.0 | 0.00 | 0.00 | 0.00 | 81 | 1006.4 |
| 20260904204137 | 30 | 134 | 0.0 | 0.0 | 0.00 | 0.00 | 0.00 | 79 | 1006.4 |
| 20260904203650 | 30 | 136 | 0.0 | 0.0 | 0.00 | 0.00 | 0.00 | 78 | 1006.0 |
| 20260904202801 | 31 | 142 | 0.0 | 0.0 | 0.00 | 0.00 | 0.00 | 75 | 1006.0 |
| 20260904202346 | 31 | 154 | 0.0 | 1.6 | 0.00 | 0.00 | 0.00 | 72 | 1005.7 |
| 20260904201928 | 31 | 196 | 1.6 | 1.6 | 0.00 | 0.00 | 0.00 | 70 | 1006.0 |
| 20260904201512 | 30 | 122 | 0.0 | 0.0 | 0.00 | 0.00 | 0.00 | 72 | 1006.0 |
| 20260904200606 | 30 | 237 | 3.2 | 4.8 | 0.00 | 0.00 | 0.00 | 75 | 1006.4 |
| 20260904195715 | 31 | 261 | 8.0 | 9.7 | 0.00 | 0.00 | 0.00 | 73 | 1006.7 |
| 20260904195241 | 31 | 199 | 1.6 | 1.6 | 0.00 | 0.00 | 0.00 | 69 | 1007.1 |
| 20260904194810 | 30 | 175 | 1.6 | 1.6 | 0.00 | 0.00 | 0.00 | 71 | 1006.7 |
| 20260904194337 | 31 | 184 | 4.8 | 4.8 | 0.00 | 0.00 | 0.00 | 70 | 1007.1 |
| 20260904193917 | 30 | 209 | 1.6 | 1.6 | 0.00 | 0.00 | 0.00 | 71 | 1007.1 |
| 20260904192958 | 30 | 67 | 3.2 | 6.4 | 0.00 | 0.00 | 0.00 | 75 | 1007.1 |
| 20260904192545 | 31 | 25 | 12.9 | 22.5 | 0.00 | 0.00 | 0.00 | 73 | 1007.1 |
| 20260904192114 | 31 | 143 | 0.0 | 0.0 | 0.00 | 0.00 | 0.00 | 81 | 1006.7 |
| 20260904191643 | 31 | 136 | 0.0 | 0.0 | 0.00 | 0.00 | 0.00 | 81 | 1006.4 |
| 20260904191208 | 31 | 136 | 0.0 | 0.0 | 0.00 | 0.00 | 0.00 | 82 | 1006.4 |
| 20260904190752 | 31 | 135 | 0.0 | 0.0 | 0.00 | 0.00 | 0.00 | 82 | 1006.0 |
| 20260904190323 | 31 | 151 | 0.0 | 0.0 | 0.00 | 0.00 | 0.00 | 81 | 1005.7 |
| 20260904185852 | 32 | 140 | 0.0 | 0.0 | 0.00 | 0.00 | 0.00 | 79 | 1005.7 |
| 20260904185436 | 32 | 141 | 0.0 | 1.6 | 0.00 | 0.00 | 0.00 | 78 | 1006.0 |
| 20260904184531 | 33 | 122 | 0.0 | 0.0 | 0.00 | 0.00 | 0.00 | 74 | 1006.0 |
| 20260904184059 | 33 | 138 | 0.0 | 0.0 | 0.00 | 0.00 | 0.00 | 72 | 1006.0 |
| 20260904183642 | 34 | 128 | 0.0 | 0.0 | 0.00 | 0.00 | 0.00 | 70 | 1006.4 |
| 20260904183225 | 35 | 17 | 1.6 | 1.6 | 0.00 | 0.00 | 0.00 | 64 | 1006.0 |